Date String (YYYY-MM-DD hh:mm:ss) UTC,Instrument flags,Ambient pressure (hPa),Sample flow (lpm),Bypass flow (lpm),Sample temperature (°C),Ambient temperature (°C),ASC tube jacket temperature (°C),LED temperature (°C),Box temperature (°C),Sample RH (%),Span deviation,Mass concentration (μg/m³),Mass concentration (μg/m³),Mass concentration (μg/m³)
DateTimeUTC,F1_M11,P_M11,Q1_M11,Q2_M11,T1_M11,T2_M11,T3_M11,T4_M11,T5_M11,U1_M11,ZSPAN_M11,X2_M11,X0_M11,X1_M11
2022-04-20 02:00:00,,0811.8,4.99,0.00,29.6,28.6,00.0,38.4,31.4,06.2,0000.0,0003.93,0011.45,0001.96
2022-04-20 02:01:00,,0811.8,5.00,0.00,29.6,28.7,00.0,38.4,31.4,06.2,0000.0,0003.90,0010.70,0001.99
2022-04-20 02:02:00,,0811.9,5.00,0.00,29.6,28.7,00.0,38.4,31.4,06.2,0000.0,0003.83,0010.48,0001.97
2022-04-20 02:03:00,,0811.9,5.00,0.00,29.6,28.8,00.0,38.5,31.5,06.2,0000.0,0003.81,0010.92,0001.98
2022-04-20 02:04:00,,0811.9,5.01,0.00,29.7,28.8,00.0,38.5,31.5,06.2,0000.0,0003.84,0011.33,0001.99
2022-04-20 02:05:00,,0811.9,4.99,0.00,29.7,28.8,00.0,38.5,31.5,06.2,0000.0,0003.87,0011.24,0002.00
2022-04-20 02:06:00,,0811.9,5.01,0.00,29.7,28.9,00.0,38.5,31.5,06.2,0000.0,0003.78,0010.66,0001.98
2022-04-20 02:07:00,,0811.9,4.99,0.00,29.7,28.9,00.0,38.5,31.5,06.2,0000.0,0003.71,0010.30,0001.96
2022-04-20 02:08:00,,0811.9,5.01,0.00,29.7,28.9,00.0,38.5,31.4,06.2,0000.0,0003.69,0010.12,0001.95
2022-04-20 02:09:00,,0811.9,5.00,0.00,29.7,28.9,00.0,38.5,31.5,06.2,0000.0,0003.64,0009.89,0001.95
2022-04-20 02:10:00,,0811.9,5.00,0.00,29.7,28.9,00.0,38.6,31.5,06.2,0000.0,0003.69,0009.74,0001.97
2022-04-20 02:11:00,,0811.8,4.99,0.00,29.7,28.9,00.0,38.6,31.5,06.2,0000.0,0003.72,0009.36,0001.96
2022-04-20 02:12:00,,0811.8,5.01,0.00,29.7,28.8,00.0,38.6,31.5,06.2,0000.0,0003.72,0009.51,0001.94
2022-04-20 02:13:00,,0811.7,5.00,0.00,29.6,26.8,00.0,38.6,31.0,06.2,0000.0,0003.75,0010.24,0001.96
2022-04-20 02:14:00,,0811.7,4.99,0.00,29.5,25.8,00.0,38.5,30.8,06.2,0000.0,0003.76,0010.87,0001.95
2022-04-20 02:15:00,,0811.8,5.00,0.00,29.4,26.0,00.0,38.5,30.8,06.3,0000.0,0003.78,0011.07,0001.97
2022-04-20 02:16:00,,0811.8,5.01,0.00,29.3,26.4,00.0,38.4,30.9,06.3,0000.0,0003.74,0011.50,0001.98
2022-04-20 02:17:00,,0811.8,5.01,0.00,29.3,26.8,00.0,38.4,30.9,06.3,0000.0,0003.74,0011.92,0001.99
2022-04-20 02:18:00,,0811.8,4.99,0.00,29.3,27.2,00.0,38.4,31.0,06.3,0000.0,0003.74,0012.36,0002.00
2022-04-20 02:19:00,,0811.9,4.99,0.00,29.3,27.5,00.0,38.4,31.1,06.3,0000.0,0003.78,0012.60,0002.00
2022-04-20 02:20:00,,0811.9,5.01,0.00,29.4,27.7,00.0,38.4,31.1,06.3,0000.0,0003.82,0012.70,0002.02
2022-04-20 02:21:00,,0811.9,4.99,0.00,29.4,27.9,00.0,38.4,31.1,06.3,0000.0,0003.81,0013.21,0002.02
2022-04-20 02:22:00,,0811.9,4.99,0.00,29.4,28.1,00.0,38.4,31.1,06.3,0000.0,0003.78,0013.52,0002.01
2022-04-20 02:23:00,,0811.9,5.01,0.00,29.4,28.2,00.0,38.4,31.2,06.2,0000.0,0003.76,0013.44,0001.99
2022-04-20 02:24:00,,0811.9,5.00,0.00,29.4,28.3,00.0,38.4,31.2,06.2,0000.0,0003.77,0012.75,0001.97
2022-04-20 02:25:00,,0811.9,4.99,0.00,29.5,28.4,00.0,38.4,31.2,06.2,0000.0,0003.75,0011.51,0001.96
2022-04-20 02:26:00,,0811.9,5.00,0.00,29.5,28.5,00.0,38.4,31.3,06.2,0000.0,0003.70,0010.91,0001.94
2022-04-20 02:27:00,,0811.9,5.00,0.00,29.5,28.6,00.0,38.4,31.3,06.2,0000.0,0003.71,0010.34,0001.92
2022-04-20 02:28:00,,0811.9,4.99,0.00,29.5,28.6,00.0,38.4,31.3,06.2,0000.0,0003.77,0010.08,0001.92
2022-04-20 02:29:00,,0811.9,5.01,0.00,29.5,28.7,00.0,38.4,31.3,06.2,0000.0,0003.82,0009.81,0001.93
2022-04-20 02:30:00,,0811.9,4.99,0.00,29.5,28.7,00.0,38.4,31.4,06.2,0000.0,0003.80,0009.47,0001.93
2022-04-20 02:31:00,,0811.9,5.02,0.00,29.6,28.7,00.0,38.4,31.4,06.2,0000.0,0003.85,0009.66,0001.91
2022-04-20 02:32:00,,0811.9,4.99,0.00,29.6,28.8,00.0,38.4,31.4,06.2,0000.0,0003.86,0009.10,0001.92
2022-04-20 02:33:00,,0811.9,4.99,0.00,29.6,28.8,00.0,38.5,31.4,06.2,0000.0,0003.89,0008.77,0001.92
2022-04-20 02:34:00,,0811.8,5.01,0.00,29.6,28.9,00.0,38.5,31.5,06.2,0000.0,0003.92,0008.72,0001.92
2022-04-20 02:35:00,,0811.7,4.99,0.00,29.7,28.9,00.0,38.5,31.5,06.2,0000.0,0003.95,0008.90,0001.92
2022-04-20 02:36:00,,0811.7,5.01,0.00,29.7,29.0,00.0,38.5,31.5,06.1,0000.0,0004.04,0009.24,0001.93
2022-04-20 02:37:00,,0811.7,5.00,0.00,29.7,29.0,00.0,38.5,31.5,06.1,0000.0,0004.07,0010.19,0001.92
2022-04-20 02:38:00,,0811.7,5.00,0.00,29.7,29.0,00.0,38.6,31.6,06.2,0000.0,0004.07,0010.70,0001.91
2022-04-20 02:39:00,,0811.7,5.01,0.00,29.7,29.0,00.0,38.6,31.6,06.1,0000.0,0004.04,0011.01,0001.89
2022-04-20 02:40:00,,0811.7,4.99,0.00,29.8,29.0,00.0,38.6,31.5,06.1,0000.0,0004.03,0011.29,0001.89
2022-04-20 02:41:00,,0811.7,5.01,0.00,29.8,29.0,00.0,38.6,31.5,06.1,0000.0,0004.02,0011.46,0001.90
2022-04-20 02:42:00,,0811.7,4.98,0.00,29.8,28.7,00.0,38.6,31.5,06.1,0000.0,0003.91,0011.14,0001.89
2022-04-20 02:43:00,,0811.7,5.01,0.00,29.7,26.6,00.0,38.6,31.1,06.1,0000.0,0003.89,0011.23,0001.89
2022-04-20 02:44:00,,0811.7,5.00,0.00,29.5,25.9,00.0,38.6,30.9,06.2,0000.0,0003.85,0011.23,0001.87
2022-04-20 02:45:00,,0811.7,5.01,0.00,29.5,26.1,00.0,38.5,30.9,06.2,0000.0,0003.84,0011.22,0001.87
2022-04-20 02:46:00,,0811.7,5.00,0.00,29.4,26.5,00.0,38.5,31.0,06.2,0000.0,0003.80,0011.56,0001.88
2022-04-20 02:47:00,,0811.7,5.01,0.00,29.4,26.9,00.0,38.5,31.0,06.2,0000.0,0003.78,0011.85,0001.87
2022-04-20 02:48:00,,0811.7,4.98,0.00,29.4,27.2,00.0,38.4,31.1,06.3,0000.0,0003.75,0011.20,0001.88
2022-04-20 02:49:00,,0811.7,5.02,0.00,29.4,27.5,00.0,38.4,31.1,06.3,0000.0,0003.73,0010.55,0001.88
2022-04-20 02:50:00,,0811.7,4.98,0.00,29.4,27.8,00.0,38.4,31.1,06.3,0000.0,0003.66,0010.87,0001.88
2022-04-20 02:51:00,,0811.7,5.02,0.00,29.4,27.9,00.0,38.4,31.2,06.3,0000.0,0003.61,0010.41,0001.88
2022-04-20 02:52:00,,0811.7,4.98,0.00,29.4,28.1,00.0,38.4,31.2,06.3,0000.0,0003.57,0009.98,0001.86
2022-04-20 02:53:00,,0811.7,5.01,0.00,29.4,28.2,00.0,38.4,31.2,06.3,0000.0,0003.61,0010.86,0001.86
2022-04-20 02:54:00,,0811.7,5.00,0.00,29.5,28.3,00.0,38.4,31.2,06.2,0000.0,0003.63,0011.77,0001.85
2022-04-20 02:55:00,,0811.7,4.99,0.00,29.5,28.4,00.0,38.4,31.3,06.2,0000.0,0003.64,0012.03,0001.86
2022-04-20 02:56:00,,0811.7,5.01,0.00,29.5,28.5,00.0,38.4,31.3,06.2,0000.0,0003.63,0012.51,0001.87
2022-04-20 02:57:00,,0811.7,4.98,0.00,29.5,28.5,00.0,38.4,31.3,06.2,0000.0,0003.61,0012.10,0001.86
2022-04-20 02:58:00,,0811.7,5.00,0.00,29.5,28.6,00.0,38.4,31.3,06.2,0000.0,0003.59,0011.56,0001.86
2022-04-20 02:59:00,,0811.7,4.99,0.00,29.5,28.6,00.0,38.4,31.3,06.3,0000.0,0003.56,0011.50,0001.87
